星链-31942 (STARLINK-31942 )

导读

STARLINK-31942是美国SpaceX星链星座的成员,于2024年5月28日发射升空,星链项目旨在构建全球卫星互联网星座,为全球用户提供高速宽带网络服务。该卫星延续了星链星座的设计标准,承担卫星通信组网任务,助力完善星链低轨卫星通信网络的覆盖范围与服务能力。

Basic Information
目录编号:
59899
目录名称:
STARLINK-31942
国际标识:
2024-100Q
轨道中心:
EARTH
卫星名称:
星链-31942
卫星全名:
星链-31942 (STARLINK-31942 )
卫星状态:
在轨 (已飞行751 天)
发射日期:
2024-05-28 UTC
国别 :
美国 (US)
星等 :
--
Orbit Information
数据来源 国际轨道数据
星历时间: 2026-06-17T09:03:38+0800
1天前
查看轨道信息
半长轴: 6861.196km
偏心率: 0.0001053
轨道倾角: 43.003°
近地点辐角 254.364°
升交点赤经 284.141°
平近点角 105.710°
近地点: 482.336km
远地点: 483.782km
周期: 94.267分钟
每日圈数: 15.275769
Detailed Information
固有亮度:
5
最大亮度:
1.5
卫星平台:
Starlink v2.0 mini
覆盖范围:
全球
运营商:
太空探索技术公司
运营商所在国:
美国
制造商(研发单位):
太空探索技术公司
制造商所在国:
美国
使用方式:
暂无
Satellite Introduction
星链(Starlink)计划是由太空探索技术公司(SpaceX)提出的一个巨型低轨卫星互联网星座项目,计划在2019年至2024年间在太空搭建由约1.2万颗卫星组成的“星链”网络,其中1584颗将部署在地球上空550千米处的近地轨道,并从2020年开始工作。该卫星仍在工作。
2D Orbit Map
3D Orbit Map
Orbit Altitude Analysis Chart
Orbit Inclination Analysis Chart
Orbit Comprehensive Analysis Chart
View Comprehensive Chart